Home > Weather > Safed > Past weeks

Flag for Israel Past Weather in Safed, Israel — Yesterday and Last 2 Weeks

Now
70 °F

Passing clouds.


Feels Like: 70 °F
Forecast: 54 / 69 °F
Wind: 5 mph from Southeast

Location: Beirut Airport

Current Time: May 25, 2016 at 12:42:47 AM

Latest Report: May 25, 2016 at 12:00 AM


Visibility: N/A

Pressure: 30.01 "Hg (27.44 "Hg at 772m altitude)

Humidity: 60%

Dew Point: 55 °F

Location of SafedLocation

Past Weather in Safed — Graph

°F

Safed Temperature Yesterday

Maximum temperature yesterday: 75 °F (at 1:00 PM)
Minimum temperature yesterday: 66 °F (at 4:00 AM)
Average temperature yesterday: 72 °F

High & Low Weather Summary for the Past Weeks

 TemperatureHumidityPressure
High97 °F (May 16, 12:00 PM)88% (May 12, 11:00 PM)30.07 "Hg (May 12, 11:00 PM)
Low66 °F (May 10, 6:00 AM)20% (May 14, 5:00 PM)29.77 "Hg (May 22, 8:00 PM)
Average74 °F61%29.95 "Hg
* Reported May 9 11:00 PM — May 24 11:00 PM, Safed, Weather by CustomWeather, © 2016

Note: Actual official high and low records may vary slightly from our data, if they occured in-between our weather recording intervals... More about our weather records

Advertising

Safed Weather History for the Previous 24 Hours

Scroll right to see more
 ConditionsComfort  
Time TempWeatherWind HumidityBarometerVisibility
11:00 PM
Tue, May 24
70 °FPassing clouds.8 mph64%30.01 "HgN/A
10:00 PM70 °FPassing clouds.9 mph69%30.01 "HgN/A
9:00 PM72 °FPassing clouds.9 mph69%30.01 "HgN/A
8:00 PM72 °FScattered clouds.14 mph69%30.01 "HgN/A
7:00 PM73 °FScattered clouds.14 mph65%29.98 "Hg5 mi
6:00 PM73 °FPartly sunny.14 mph65%29.98 "Hg5 mi
5:00 PM75 °FPartly sunny.14 mph65%29.98 "Hg5 mi
4:00 PM75 °FPartly sunny.14 mph65%29.98 "Hg5 mi
3:00 PM75 °FScattered clouds.13 mph65%29.98 "Hg5 mi
2:00 PM75 °FScattered clouds.13 mph65%29.98 "Hg5 mi
1:00 PM75 °FScattered clouds.13 mph61%29.98 "Hg5 mi
11:00 AM73 °FPartly sunny.10 mph65%29.95 "Hg4 mi
10:00 AM72 °FPartly sunny.12 mph65%29.95 "Hg4 mi
7:00 AM70 °FPartly sunny.14 mph69%29.89 "Hg3 mi
6:00 AM70 °FPassing clouds.13 mph69%29.89 "Hg3 mi
5:00 AM68 °FRain. Passing clouds.14 mph73%29.89 "Hg3 mi
4:00 AM66 °FRain. Passing clouds.13 mph83%29.89 "Hg3 mi
3:00 AM68 °FRain showers. Passing clouds.13 mph78%29.89 "Hg3 mi
Weather by CustomWeather, © 2016

See weather overviewHow to use our weather pages